Location: Unspecified
(0.0000°N, 0.0000°E)
Time: 08:02:28
(UTC+00:00)

OV3-3 - Visible Passes

Search period start: 28 May 2018 00:00
Search period end: 07 June 2018 00:00
Orbit: 339 x 2250 km, 81.4° (Epoch: 27 May)

Date Brightness Start Highest point End Pass type
(mag) Time Alt. Az. Time Alt. Az. Time Alt. Az.
28 May 10.8 01:02:52 14° NNW 01:02:52 14° NNW 01:03:58 10° NNW visible
29 May 10.9 01:13:13 11° NNW 01:13:13 11° NNW 01:13:38 10° NNW visible
29 May 11.0 23:31:59 11° NNE 23:31:59 11° NNE 23:32:08 10° NNE visible
30 May 10.9 23:42:15 11° NNE 23:42:15 11° NNE 23:42:38 10° NNE visible
31 May 10.9 23:52:30 12° N 23:52:30 12° N 23:52:55 10° N visible
02 Jun 10.9 00:02:43 11° N 00:02:43 11° N 00:03:00 10° N visible
